sat.trackr.live / text

‹ back to catalog

STARLINK-35760

NORAD 66274 · 2025-247K

PAYLOAD ACTIVE UNKNOWN

§ Identity

Operator
Country
US
Launch date
2025-10-31
Launch site
AFWTR
Launch vehicle
Mass (kg)
RCS (m²)

Purposes: comms

External: N2YO · Heavens-Above · Gunter

§ Orbital elements

Epoch: 2026-05-25T03:01:01.814880Z

Period
94.11 min
Inclination
53.1595°
Eccentricity
0.0001205
Mean motion
15.30203797 rev/d
Perigee alt
474.4 km
Apogee alt
476.0 km
Semi-major
6,853.3 km
B*
3.1550e-4
RAAN
196.5986°
Arg perigee
87.3789°
Mean anomaly
272.7349°
Rev number
3,273

§ Raw data

STARLINK-357601 66274U 25247K   26145.12571545  .00008998  00000+0  31550-3 0  99932 66274  53.1595 196.5986 0001205  87.3789 272.7349 15.30203797 32735

JSON: /api/v1/satellites/66274 · /tle

For live sub-satellite position, see the globe view (requires WebGL).

§ Visibility from observer

Set your observer location to see the next 7 days of passes ≥ 10°. The values pass through the URL so the page stays shareable.

No JS? Fill the form by hand. The geolocation button needs JavaScript.